TimeCST,TemperatureF,Dew PointF,Humidity,Sea Level PressureIn,VisibilityMPH,Wind Direction,Wind SpeedMPH,Gust SpeedMPH,PrecipitationIn,Events,Conditions,WindDirDegrees,DateUTC
12:15 AM,39.2,33.3,79,30.14,10.0,South,8.1,-,N/A,,Clear,180,2013-03-03 06:15:00
12:35 AM,39.2,33.4,80,30.13,10.0,South,8.1,-,N/A,,Clear,180,2013-03-03 06:35:00
12:55 AM,38.8,33.4,81,30.12,10.0,South,8.1,-,N/A,,Clear,180,2013-03-03 06:55:00
1:15 AM,38.5,33.6,83,30.12,10.0,South,6.9,-,N/A,,Clear,190,2013-03-03 07:15:00
1:35 AM,39.2,33.8,81,30.12,10.0,South,8.1,-,N/A,,Clear,180,2013-03-03 07:35:00
1:55 AM,39.4,33.8,80,30.12,10.0,South,8.1,-,N/A,,Clear,190,2013-03-03 07:55:00
2:15 AM,39.6,33.8,80,30.11,10.0,South,6.9,-,N/A,,Clear,180,2013-03-03 08:15:00
2:35 AM,39.2,33.8,81,30.11,10.0,South,6.9,-,N/A,,Clear,190,2013-03-03 08:35:00
2:55 AM,39.0,33.8,82,30.11,10.0,South,8.1,-,N/A,,Clear,190,2013-03-03 08:55:00
3:15 AM,38.3,33.8,84,30.10,10.0,South,8.1,-,N/A,,Clear,190,2013-03-03 09:15:00
3:35 AM,37.9,33.8,85,30.09,10.0,SSW,8.1,-,N/A,,Clear,200,2013-03-03 09:35:00
3:55 AM,37.4,33.4,86,30.08,10.0,SSW,8.1,-,N/A,,Clear,200,2013-03-03 09:55:00
4:15 AM,37.0,33.4,87,30.07,10.0,South,8.1,-,N/A,,Clear,190,2013-03-03 10:15:00
4:35 AM,37.0,33.3,86,30.06,10.0,South,9.2,-,N/A,,Clear,190,2013-03-03 10:35:00
4:55 AM,36.9,33.1,86,30.04,10.0,SSW,9.2,-,N/A,,Clear,200,2013-03-03 10:55:00
5:15 AM,36.1,32.9,88,30.04,10.0,South,8.1,-,N/A,,Clear,190,2013-03-03 11:15:00
5:35 AM,35.8,32.5,88,30.04,10.0,SSW,9.2,-,N/A,,Clear,200,2013-03-03 11:35:00
5:55 AM,36.5,32.2,84,30.04,10.0,South,9.2,-,N/A,,Clear,190,2013-03-03 11:55:00
6:15 AM,36.3,32.0,84,30.02,10.0,South,8.1,-,N/A,,Clear,180,2013-03-03 12:15:00
6:35 AM,36.7,32.0,83,30.02,10.0,SSW,9.2,-,N/A,,Clear,200,2013-03-03 12:35:00
6:55 AM,36.5,31.6,83,30.01,10.0,South,9.2,-,N/A,,Clear,190,2013-03-03 12:55:00
7:15 AM,36.1,31.5,83,30.01,10.0,South,9.2,-,N/A,,Clear,190,2013-03-03 13:15:00
7:35 AM,36.1,31.5,83,30.01,10.0,South,6.9,-,N/A,,Clear,180,2013-03-03 13:35:00
7:55 AM,37.0,31.6,81,30.00,10.0,South,8.1,-,N/A,,Clear,190,2013-03-03 13:55:00
8:15 AM,37.6,32.0,80,30.00,10.0,South,9.2,-,N/A,,Clear,190,2013-03-03 14:15:00
8:35 AM,38.7,32.4,78,29.99,10.0,SSW,10.4,-,N/A,,Clear,200,2013-03-03 14:35:00
8:55 AM,40.1,33.3,77,29.99,10.0,SSW,8.1,-,N/A,,Clear,200,2013-03-03 14:55:00
9:15 AM,41.9,34.2,74,29.98,10.0,SSW,11.5,-,N/A,,Clear,200,2013-03-03 15:15:00
9:35 AM,43.5,35.1,72,29.97,10.0,SSW,12.7,-,N/A,,Clear,200,2013-03-03 15:35:00
9:55 AM,45.5,36.7,71,29.96,10.0,SSW,11.5,-,N/A,,Clear,200,2013-03-03 15:55:00
10:15 AM,47.3,37.4,68,29.96,10.0,SSW,9.2,-,N/A,,Clear,200,2013-03-03 16:15:00
10:35 AM,50.2,39.4,66,29.95,10.0,SSW,9.2,-,N/A,,Clear,200,2013-03-03 16:35:00
11:15 AM,55.2,40.5,58,29.92,10.0,SSW,11.5,-,N/A,,Clear,200,2013-03-03 17:15:00
11:35 AM,56.1,40.1,55,29.92,10.0,SSW,12.7,-,N/A,,Clear,200,2013-03-03 17:35:00
12:15 PM,57.6,39.9,52,29.89,10.0,SSW,12.7,18.4,N/A,,Clear,200,2013-03-03 18:15:00
12:35 PM,59.4,40.8,50,29.87,10.0,SSW,12.7,-,N/A,,Clear,200,2013-03-03 18:35:00
12:55 PM,61.5,41.9,49,29.84,10.0,South,17.3,21.9,N/A,,Clear,190,2013-03-03 18:55:00
1:15 PM,62.6,40.1,44,29.83,10.0,South,20.7,25.3,N/A,,Clear,190,2013-03-03 19:15:00
1:35 PM,64.8,40.5,41,29.80,10.0,South,19.6,25.3,N/A,,Clear,190,2013-03-03 19:35:00
1:55 PM,65.7,40.8,40,29.79,10.0,South,17.3,25.3,N/A,,Clear,190,2013-03-03 19:55:00
2:15 PM,66.2,41.2,40,29.77,10.0,South,18.4,25.3,N/A,,Clear,190,2013-03-03 20:15:00
2:35 PM,67.5,41.2,38,29.75,10.0,South,23.0,29.9,N/A,,Clear,190,2013-03-03 20:35:00
2:55 PM,66.4,39.7,38,29.74,10.0,South,19.6,27.6,N/A,,Clear,190,2013-03-03 20:55:00
3:15 PM,67.8,41.7,39,29.74,10.0,South,17.3,23.0,N/A,,Clear,180,2013-03-03 21:15:00
3:35 PM,70.0,41.9,36,29.72,10.0,SSW,21.9,29.9,N/A,,Clear,200,2013-03-03 21:35:00
3:55 PM,67.3,42.1,40,29.72,10.0,South,15.0,23.0,N/A,,Clear,190,2013-03-03 21:55:00
4:15 PM,66.6,42.6,42,29.71,10.0,South,18.4,25.3,N/A,,Clear,180,2013-03-03 22:15:00
4:35 PM,66.6,42.8,42,29.70,10.0,South,17.3,24.2,N/A,,Clear,180,2013-03-03 22:35:00
4:55 PM,67.5,43.0,41,29.69,10.0,South,17.3,26.5,N/A,,Clear,180,2013-03-03 22:55:00
5:15 PM,67.5,44.4,43,29.69,10.0,South,10.4,16.1,N/A,,Clear,170,2013-03-03 23:15:00
5:35 PM,66.4,44.1,44,29.68,10.0,SSE,11.5,-,N/A,,Clear,150,2013-03-03 23:35:00
5:55 PM,66.2,44.6,46,29.67,10.0,SE,9.2,-,N/A,,Clear,140,2013-03-03 23:55:00
6:15 PM,65.3,44.6,47,29.67,10.0,SE,8.1,-,N/A,,Clear,140,2013-03-04 00:15:00
6:35 PM,63.7,44.1,49,29.65,10.0,SE,9.2,-,N/A,,Clear,140,2013-03-04 00:35:00
6:55 PM,62.1,43.2,50,29.65,10.0,SSE,9.2,17.3,N/A,,Clear,150,2013-03-04 00:55:00
7:15 PM,61.2,43.0,51,29.65,10.0,SE,10.4,-,N/A,,Clear,140,2013-03-04 01:15:00
7:35 PM,59.9,43.0,54,29.65,10.0,SE,10.4,-,N/A,,Clear,140,2013-03-04 01:35:00
7:55 PM,59.2,42.6,54,29.64,10.0,SE,12.7,-,N/A,,Clear,130,2013-03-04 01:55:00
8:15 PM,58.3,42.3,55,29.63,10.0,SE,11.5,-,N/A,,Clear,140,2013-03-04 02:15:00
8:35 PM,58.1,41.9,55,29.63,10.0,SE,12.7,16.1,N/A,,Clear,140,2013-03-04 02:35:00
8:55 PM,57.6,41.9,56,29.63,10.0,SE,10.4,-,N/A,,Clear,140,2013-03-04 02:55:00
9:15 PM,56.1,41.9,59,29.62,10.0,SSE,8.1,-,N/A,,Clear,150,2013-03-04 03:15:00
9:35 PM,55.0,41.7,61,29.61,10.0,SSE,10.4,-,N/A,,Clear,150,2013-03-04 03:35:00
9:55 PM,55.4,41.5,60,29.61,10.0,SSE,10.4,-,N/A,,Clear,160,2013-03-04 03:55:00
10:15 PM,56.1,41.0,57,29.59,10.0,SSE,11.5,18.4,N/A,,Clear,160,2013-03-04 04:15:00
10:35 PM,55.6,41.0,58,29.59,10.0,SSE,11.5,18.4,N/A,,Clear,160,2013-03-04 04:35:00
10:55 PM,54.9,40.5,58,29.59,10.0,SSE,10.4,-,N/A,,Clear,160,2013-03-04 04:55:00
11:15 PM,54.0,40.1,59,29.58,10.0,SSE,10.4,-,N/A,,Clear,160,2013-03-04 05:15:00
11:35 PM,55.4,39.0,54,29.56,10.0,South,13.8,17.3,N/A,,Clear,170,2013-03-04 05:35:00